Regional Weather Roundup
Issued by NWS

Home | Current Version | Previous Version | Graphics & Text | Print | Product List | Glossary On
Versions: 1 2 3 4 5 6 7 8 9 10 11 12 13 14 15 16 17 18 19 20 21 22 23 24 25 26 27 28 29 30 31 32 33 34 35 36 37 38 39 40 41 42 43 44 45 46 47 48 49 50
728
ASUS43 KDMX 140006
RWRIA

WEATHER ROUNDUP FOR IOWA
NATIONAL WEATHER SERVICE DES MOINES IA
600 PM CST WED DEC 13 2017

NOTE: "FAIR" INDICATES FEW OR NO CLOUDS BELOW 12,000 FEET WITH NO
SIGNIFICANT WEATHER AND/OR OBSTRUCTIONS TO VISIBILITY.

* - THESE STATIONS ARE NOT NWS STATIONS...THUS NOT UNDER NWS
QUALITY CONTROL.  THEY ALSO DO NOT REPORT WEATHER SUCH
AS PRECIPITATION OR FOG.

IAZ001>003-012>014-020>022-031>034-043>046-140100-
   NORTHWEST IOWA

CITY           SKY/WX    TMP DP  RH WIND       PRES   REMARKS
CARROLL *      CLOUDY    37  28  70 NW17G26   29.84R WCI  28
CHEROKEE *     CLOUDY    35  30  80 N17G25    29.87R WCI  25
DENISON *      CLOUDY    37  28  70 N14       29.88R WCI  29
LE MARS *      CLOUDY    37  30  75 N14G21    29.89R WCI  29
ORANGE CITY *  CLOUDY    36  34  93 N13G20    29.88R WCI  27
SHELDON *      CLOUDY    34  27  75 N24G32    29.86R WCI  21
SIOUX CITY     CLOUDY    40  26  57 NW21G26   29.89R WCI  30
6HR MIN TEMP:  40; 6HR MAX TEMP:  45;

SPENCER        CLOUDY    33  24  69 N23G29    29.86R WCI  21
6HR MIN TEMP:  33; 6HR MAX TEMP:  37;

STORM LAKE *   CLOUDY    34  28  80 N18       29.85R WCI  23
$$

IAZ055>058-069>071-079>083-090>094-140100-
   SOUTHWEST IOWA

CITY           SKY/WX    TMP DP  RH WIND       PRES   REMARKS
ATLANTIC *     CLOUDY    39  28  65 N13       29.86R WCI  32
AUDUBON *      CLOUDY    37  30  75 NW14G22   29.85R WCI  29
CLARINDA *     CLOUDY    43  28  56 N21G35      N/A
COUNCIL BLFS * CLOUDY    41  28  60 NW18      29.88R
CRESTON *      CLOUDY    39  28  65 N22G38    29.84R WCI  29
HARLAN  *      CLOUDY    39  28  65 NW18G26   29.90R WCI  30
LAMONI         CLOUDY    41  27  57 NW22G32   29.81R
6HR MIN TEMP:  41; 6HR MAX TEMP:  51;

RED OAK *      CLOUDY    41  28  60 N14       29.87R
SHENANDOAH *   MOCLDY    41  28  60 N18       29.89R
$$

IAZ047>049-059>061-072>074-084-140100-
   CENTRAL IOWA

CITY           SKY/WX    TMP DP  RH WIND       PRES   REMARKS
AMES           CLOUDY    35  23  61 NW35G46   29.80R WCI  21
6HR MIN TEMP:  35; 6HR MAX TEMP:  39;

ANKENY *       CLOUDY    36  23  60 NW28G37   29.82R WCI  23
BOONE *        CLOUDY    34  23  64 NW26G44   29.79R WCI  21
CHARITON *     MIX PCPN  37  28  70 NW26G37   29.80R WCI  26
DES MOINES     CLOUDY    37  24  59 NW21G36   29.81R WCI  26
6HR MIN TEMP:  37; 6HR MAX TEMP:  43;

GRINNELL*      CLOUDY    33  26  76 NW29G35   29.75R WCI  19
KNOXVILLE *    CLOUDY    37  23  56 NW26G41   29.77R WCI  26
MARSHALLTOWN   CLOUDY    32  24  72 NW31G40   29.76R WCI  17
6HR MIN TEMP:  32; 6HR MAX TEMP:  36;

NEWTON *       CLOUDY    36  23  60 NW28G39   29.77R WCI  23
PELLA *        CLOUDY    36  23  58 NW35G46   29.79R WCI  22
PERRY *        CLOUDY    35  24  64 NW21G32   29.84R WCI  24
$$

IAZ004>006-015-016-023>025-035-036-140100-
   NORTH CENTRAL IOWA

CITY           SKY/WX    TMP DP  RH WIND       PRES   REMARKS
ALGONA *       CLOUDY    32  25  74 N18G31    29.81R WCI  20
ESTHERVILLE    CLOUDY    30  22  72 NW31G46   29.81R WCI  15
6HR MIN TEMP:  30; 6HR MAX TEMP:  34;

FORT DODGE *   CLOUDY    33  20  58 NW18G32   29.82R WCI  22
MASON CITY     CLOUDY    28  21  75 N25G36    29.78R WCI  13
6HR MIN TEMP:  28; 6HR MAX TEMP:  32;

FOREST CITY *  CLOUDY    30  23  74 N23G29    29.79R WCI  17
WEBSTER CITY * CLOUDY    34  21  60 NW24G38   29.78R WCI  21
IOWA FALLS *   CLOUDY    32  25  76 NW28G36   29.78R WCI  18
$$

IAZ007>011-017>019-026>030-037>042-050>054-066-140100-
   NORTHEAST IOWA

CITY           SKY/WX    TMP DP  RH WIND       PRES   REMARKS
CEDAR RAPIDS   CLOUDY    32  25  75 NW28G39   29.69R WCI  18
6HR MIN TEMP:  32; 6HR MAX TEMP:  38; 6HR PCP: TRACE;

CHARLES CITY * CLOUDY    27  25  93 N21G31    29.74R WCI  13
CLINTON *      CLOUDY    32  25  75 NW23G30   29.63R WCI  19
DECORAH *      CLOUDY    23  19  86 N18G32    29.69R WCI   9
DUBUQUE        CLOUDY    26  19  74 N25G35    29.63R WCI  11
6HR MIN TEMP:  26; 6HR MAX TEMP:  37;

MONTICELLO *   CLOUDY    30  21  69 NW22G33   29.67R WCI  17
OELWEIN *      CLOUDY    27  21  80 N20G31    29.72R WCI  13
WATERLOO       CLOUDY    30  23  75 NW25G36   29.73R WCI  16
6HR MIN TEMP:  30; 6HR MAX TEMP:  37;

$$

IAZ064-065-067-068-078-140100-
   EAST CENTRAL IOWA

CITY           SKY/WX    TMP DP  RH WIND       PRES   REMARKS
DAVENPORT      CLOUDY    33  22  63 NW38G49   29.65R WCI  18
6HR MIN TEMP:  33; 6HR MAX TEMP:  44; 6HR PCP: TRACE;

IOWA CITY      CLOUDY    34  25  69 NW23G35   29.71R WCI  22
6HR MIN TEMP:  34; 6HR MAX TEMP:  40; 6HR PCP: TRACE;

MT. PLEASANT * CLOUDY    35  27  70 NW17G24   29.71R WCI  25
MUSCATINE *    CLOUDY    34  25  69 NW22G37   29.69R WCI  22
QUAD CITIES    CLOUDY    36  26  67 NW28G40   29.63R WCI  23
6HR MIN TEMP:  36; 6HR MAX TEMP:  47;

$$

IAZ062-063-075>077-085>089-095>099-140100-
   SOUTHEAST IOWA

CITY           SKY/WX    TMP DP  RH WIND       PRES   REMARKS
BURLINGTON     CLOUDY    36  28  73 NW22G35   29.69R WCI  25
6HR MIN TEMP:  36; 6HR MAX TEMP:  44; 6HR PCP:  0.01;

FAIRFIELD *    CLOUDY    36  25  64 NW29G39   29.72R WCI  23
FORT MADISON * CLOUDY    37  28  70 NW23G32   29.72R WCI  26
KEOKUK *       CLOUDY    37  28  70 NW18G29   29.72R WCI  27
OSKALOOSA *    CLOUDY    35  24  65 NW29G39   29.76R WCI  22
OTTUMWA        CLOUDY    37  24  59 NW30G46   29.76R WCI  24
6HR MIN TEMP:  37; 6HR MAX TEMP:  41; 6HR PCP: TRACE;

WASHINGTON *   CLOUDY    34  28  80 NW23G29   29.73R WCI  22
$$

ABBREVIATIONS USED IN REMARKS
   TC - TEMPERATURES IN CELSIUS
  WCI - WIND CHILL INDEX
   HX - HEAT INDEX
  VSB - VISIBILITY
$$





USA.gov is the U.S. government's official web portal to all federal, state and local government web resources and services.